Location: DARK SKY Beskydy - Park tmavé oblohy, www.darkskybeskydy.cz
(49.4926°N, 18.5016°E)
Time: 17:42:13
(UTC+02:00)

PCSat - Pass Details

Date: 12 August 2024
Orbit: 781 x 793 km, 67.1° (Epoch: 08 September)

Event Time Altitude Azimuth Distance (km) Brightness Sun altitude
Rises 23:59:36 0° 325° (NW) 3,301 13.9 -24.6°
Reaches altitude 10° 00:02:29 10° 339° (NNW) 2,369 13.1 -24.7°
Maximum altitude 00:06:51 24° 33° (NNE) 1,603 11.6 -24.9°
Drops below altitude 10° 00:11:12 10° 86° (E) 2,361 11.9 -25.0°
Enters shadow 00:11:47 - 90° (E) 2,535 12.1 -25.0°
